Location: Drożyska Wielkie
(53.3958°N, 17.1483°E)
Time: 17:18:14
(UTC+01:00)

ISS - Visible Passes

Search period start: 16 January 2019 00:00
Search period end: 26 January 2019 00:00
Orbit: 404 x 407 km, 51.6° (Epoch: 17 January)

Date Brightness Start Highest point End Pass type
(mag) Time Alt. Az. Time Alt. Az. Time Alt. Az.
23 Jan -1.2 18:37:35 10° S 18:38:06 12° S 18:38:06 12° S visible
24 Jan -1.4 17:47:18 10° SSE 17:48:00 11° SE 17:48:29 10° SE visible
24 Jan -0.8 19:20:45 10° SW 19:21:11 13° SW 19:21:11 13° SW visible
25 Jan -2.3 18:29:09 10° SSW 18:31:29 25° SSE 18:31:29 25° SSE visible
